Tracking 20093 objects as of 14-Dec-2019
HD Live streaming from Space Station
objects crossing your sky now

COSMOS 2251 DEB

Track COSMOS 2251 DEB now!
10-day predictions


NORAD ID: 34477
Int'l Code: 1993-036TW
Perigee: 684.5 km
Apogee: 816.2 km
Inclination: 74.0 °
Period: 99.7 minutes
Semi major axis: 7121 km
RCS: 0.0204 m2 (small)
Launch date: June 16, 1993
Source: Commonwealth of Independent States (former USSR) (CIS)
Launch site: PLESETSK MISSILE AND SPACE COMPLEX (PKMTR)

Note: This is SATELLITE DEBRIS
aabbcc
Your satellite tracking list
Your tracking list is empty




NASA's NSSDC Master Catalog

Two Line Element Set (TLE):
1 34477U 93036TW  19348.44767079  .00000204  00000-0  64159-4 0  9990
2 34477  73.9820 224.3566 0092446 202.8810 211.7818 14.44634002569501
Source of the keplerian elements: AFSPC